This is the latest recevied weather packets stored in our database for station/object N8SDR. If no packets are shown the sender has not sent any weather packets the latest 10 day(s).
| Time | Temp. | Humidity | Pressure | Rain* | Wind** | Luminosity | Snow |
|---|---|---|---|---|---|---|---|
| 1778099810 | 14.44° C | 57% | 1009.8 hPa | 0 mm | - | 132 W/m² | - |
| 1778099506 | 14.44° C | 58% | 1009.9 hPa | 0 mm | - | 182 W/m² | - |
| 1778099204 | 14.44° C | 58% | 1010 hPa | 0 mm | - | 132 W/m² | - |
| 1778098899 | 14.44° C | 58% | 1010.1 hPa | 0 mm | - | 180 W/m² | - |
| 1778098597 | 15° C | 57% | 1009.9 hPa | 0 mm | - | 242 W/m² | - |
| 1778098293 | 14.44° C | 58% | 1010 hPa | 0 mm | - | 223 W/m² | - |
| 1778097990 | 14.44° C | 56% | 1010 hPa | 0 mm | - | 166 W/m² | - |
| 1778097687 | 14.44° C | 57% | 1009.9 hPa | 0 mm | - | 158 W/m² | - |
| 1778097383 | 14.44° C | 58% | 1009.8 hPa | 0 mm | - | 179 W/m² | - |
| 1778097080 | 15° C | 60% | 1009.8 hPa | 0 mm | - | 169 W/m² | - |
| 1778096777 | 15° C | 59% | 1009.7 hPa | 0 mm | - | 197 W/m² | - |
| 1778096473 | 15° C | 59% | 1009.9 hPa | 0 mm | - | 172 W/m² | - |
| 1778096171 | 15° C | 57% | 1009.8 hPa | 0 mm | - | 227 W/m² | - |
| 1778095869 | 15.56° C | 56% | 1009.8 hPa | 0 mm | - | 340 W/m² | - |
| 1778095565 | 15.56° C | 57% | 1009.6 hPa | 0 mm | - | 406 W/m² | - |
| 1778095261 | 15.56° C | 57% | 1009.4 hPa | 0 mm | - | 403 W/m² | - |
| 1778094958 | 15.56° C | 58% | 1009.4 hPa | 0 mm | - | 458 W/m² | - |
| 1778094653 | 15.56° C | 56% | 1009.5 hPa | 0 mm | - | 347 W/m² | - |
| 1778094351 | 15.56° C | 55% | 1009.5 hPa | 0 mm | - | 363 W/m² | - |
| 1778094048 | 15° C | 55% | 1009.5 hPa | 0 mm | - | 381 W/m² | - |
| 1778093745 | 15.56° C | 53% | 1009.6 hPa | 0 mm | - | 278 W/m² | - |
| 1778093442 | 15.56° C | 54% | 1009.5 hPa | 0 mm | - | 368 W/m² | - |
| 1778093139 | 15° C | 58% | 1009.8 hPa | 0 mm | - | 457 W/m² | - |
| 1778092836 | 15° C | 59% | 1009.6 hPa | 0 mm | - | 316 W/m² | - |
| 1778092532 | 15° C | 58% | 1009.5 hPa | 0 mm | - | 294 W/m² | - |
* Rain latest hour (hover to see other rain measurements)
** Current wind speed in m/s (hover to see current wind gust speed)